Retour au catalogue

ONEWEB-0316

ActifCommunicationsPO
NORAD 49102·PAYLOAD·🇬🇧 United Kingdom

Lancé Aug 21, 2021 depuis Baikonur Cosmodrome

Loading…

Prochains Passages (prochaines 24 heures)

TLE

FraisSource: CelesTrak SupGP

Époque: Sep 14, 2026, 22:33 UTC

1 49102C 21075AD  26257.93977269  .00001419  00000+0  36026-2 0  2575
2 49102  87.9168 317.6245 0001815  99.1040 350.7888 13.18684690    19

Suivez ONEWEB-0316 en temps réel avec AllMySat

Download on the App Store